Silvestre De Sousa

Silvestre De Sousa

Statistiques 2026

  • Courses courues : 268
  • Nb de victoires : 30
  • Nb de places : 80
  • Écart gagnant : 15
  • Réussite à la gagne : 11%
  • Réussite à la place : 30%
Musique : 8p 8p 14p 10p 9p 18p 2p 16p 13p 9p 9p 7p 6p 4p 2p 1p 2p 9p
DateRangCatégorieAlloc.Dist.HippodromeChevalPoidsSpé.
03/05/25 5 Galop 35 294€ Gb-Newmarket Gilet 60,5 Plat
04/05/25 2 Galop 147 059€ Gb-Newmarket Elmalka 58 Plat
04/05/25 4 Galop 47 059€ Gb-Newmarket Moira Express 58 Plat
08/05/25 0 Galop 9 412€ GB-CHELMSFORD Ediva The Fair 57,5 Plat
08/05/25 0 Galop 10 588€ GB-CHELMSFORD Bill Plumb 59 Plat
08/05/25 4 Galop 9 412€ GB-CHELMSFORD Maraaheb 57,5 Plat
25/01/25 9 Galop 33 156€ Uae-Abu Dhabi Zayd 58 Plat
12/05/25 0 Galop 21 647€ Gb-Windsor Monsieur Beaulieu 57,5 Plat
24/10/24 8 Galop 7 590€ Gb-Southwell Mdawi 60,5 Plat
15/05/25 14 Galop 70 588€ Gb-York Nazron 55 Plat
15/05/25 2 Galop 32 353€ Gb-York Rahiebb 60 Plat
16/05/25 12 Galop 70 588€ Gb-York Man Of Desert 55 Plat
16/05/25 9 Galop 82 353€ Gb-York Gulya 58 Plat
16/05/25 4 Galop 32 353€ Gb-York Cape Sovereign 53 Plat
16/05/25 17 Galop 29 412€ Gb-York Minnesota Lad 56 Plat
27/08/24 2 Galop 10 714€ Gb-Ripon Reservardo 60,5 Plat
17/05/25 1 Galop 117 647€ Gb-Newbury Saddadd 60,5 Plat
13/08/25 2 Galop 13 793€ Gb-Kempton Al Khawssaa 60 Plat
26/07/25 8 Galop 68 966€ Gb-Ascot Teroomm 58 Plat
26/07/25 2 Galop 68 966€ Gb-Ascot Rhythm N Hooves 56 Plat
29/07/25 3 Galop 114 943€ Gb-Goodwood Defiance 58 Plat
29/07/25 16 Galop 86 207€ Gb-Goodwood Twilight Jet 61 Plat
29/07/25 4 Galop 68 966€ Gb-Goodwood Anashhad 58 Plat
29/07/25 1 Galop 57 471€ Gb-Goodwood Protest 61 Plat
30/07/25 8 Galop 86 207€ Gb-Goodwood Sudu 58 Plat
30/07/25 5 Galop 114 943€ Gb-Goodwood Jabaara 60 Plat
30/07/25 3 Galop 86 207€ Gb-Goodwood Model Yuko 54 Plat
31/07/25 17 Galop 114 943€ Gb-Goodwood Janey Mackers 56 Plat
31/07/25 4 Galop 229 885€ Gb-Goodwood Rahiebb 59 Plat
31/07/25 13 Galop 57 471€ Gb-Goodwood Star Chorus 53 Plat
01/08/25 10 Galop 86 207€ Gb-Goodwood Zinc White 53 Plat
01/08/25 15 Galop 172 414€ Gb-Goodwood Fantastic Fox 59 Plat
01/08/25 4 Galop 57 471€ Gb-Goodwood Ride The Thunder 59 Plat
29/05/25 11 Galop 17 857€ Gb-Sandown Sierra Blanca 60 Plat
27/06/25 4 Galop 75 581€ Gb-Newcastle Imperial Quarter 60 Plat
29/04/25 4 Galop 8 372€ Gb-Wolverhampton Model Yuko 57,5 Plat
29/05/25 7 Galop 47 619€ Gb-Sandown Alkuwarrior 58 Plat
10/08/25 7 Galop 73 200€ Deauville Khafiz 57 Plat lire

Longtemps dernier, a conclu de belle façon.

17/05/24 14 Galop 14 117€ Gb-Newbury Khafiz 60,5 Plat
02/05/25 3 Galop 47 059€ Gb-Goodwood Shagraan 61 Plat
07/05/25 10 Galop 35 294€ Gb-Chester Kinetic Force 60 Plat
09/06/25 7 Galop 35 714€ Gb-Windsor Miraculous 53 Plat
10/07/25 1 Galop 9 302€ Gb-Doncaster Khafiz 62 Plat
12/07/25 7 Galop 116 279€ Gb-Ascot Rhythm N Hooves 57,5 Plat
12/08/25 5 Galop 17 241€ Gb-Lingfield Star Marian 56 Plat
12/08/25 3 Galop 28 736€ Gb-Lingfield Silent City 59 Plat
28/08/25 4 Galop 8 046€ GB-CHELMSFORD Dollyana 61 Plat
28/08/25 7 Galop 8 046€ GB-CHELMSFORD Molly Mac 58 Plat
25/07/24 6 Galop 41 176€ GB-YARMOUTH Lexington Knight 59,5 Plat
28/08/25 4 Galop 10 345€ GB-CHELMSFORD General Assembly 58 Plat